,,,PA_Meas_PMT16A,,PR_Meas_QMR101_102,,RH_Meas_QMH101,,SR_Meas_QMS101,,TA_Meas_QMH101,,GenWind,,GenWind,
date,time,status,PA,status,PR,status,RH,status,SR,status,TA,status,DirAvg,status,SpdAvg,
2011-09-25, 00:00:04,VALID,1010.492,VALID,0.0,VALID,104.0,VALID,0.0,VALID,24.961,VALID,26.0,VALID,0.386,
2011-09-25, 00:01:04,VALID,1010.53,VALID,0.0,VALID,104.0,VALID,0.0,VALID,24.92,VALID,26.0,VALID,0.338,
2011-09-25, 00:02:04,VALID,1010.52,VALID,0.0,VALID,104.0,VALID,0.0,VALID,24.92,VALID,27.0,VALID,0.323,
2011-09-25, 00:03:04,VALID,1010.523,VALID,0.0,VALID,104.0,VALID,0.112,VALID,24.92,VALID,27.0,VALID,0.231,
2011-09-25, 00:04:04,VALID,1010.482,VALID,0.0,VALID,104.0,VALID,0.0,VALID,24.922,VALID,27.0,VALID,0.011,
2011-09-25, 00:05:04,VALID,1010.483,VALID,0.0,VALID,104.0,VALID,0.112,VALID,24.9,VALID,27.0,VALID,0.0,
2011-09-25, 00:06:04,VALID,1010.447,VALID,0.0,VALID,104.0,VALID,0.0,VALID,24.881,VALID,27.0,VALID,0.027,
2011-09-25, 00:07:04,VALID,1010.445,VALID,0.0,VALID,104.0,VALID,0.0,VALID,24.881,VALID,27.0,VALID,0.267,
2011-09-25, 00:08:04,VALID,1010.429,VALID,0.0,VALID,104.0,VALID,0.0,VALID,24.861,VALID,27.0,VALID,0.189,
2011-09-25, 00:09:04,VALID,1010.412,VALID,0.0,VALID,104.0,VALID,0.0,VALID,24.861,VALID,27.0,VALID,0.263,
2011-09-25, 00:10:04,VALID,1010.416,VALID,0.0,VALID,104.0,VALID,0.0,VALID,24.861,VALID,27.0,VALID,0.271,
2011-09-25, 00:11:04,VALID,1010.454,VALID,0.0,VALID,104.0,VALID,0.0,VALID,24.842,VALID,27.0,VALID,0.135,
2011-09-25, 00:12:04,VALID,1010.447,VALID,0.0,VALID,104.0,VALID,0.112,VALID,24.842,VALID,27.0,VALID,0.0,
2011-09-25, 00:13:04,VALID,1010.468,VALID,0.0,VALID,104.0,VALID,0.112,VALID,24.842,VALID,27.0,VALID,0.211,
2011-09-25, 00:14:04,VALID,1010.464,VALID,0.0,VALID,104.0,VALID,0.0,VALID,24.822,VALID,27.0,VALID,0.121,
2011-09-25, 00:15:04,VALID,1010.455,VALID,0.0,VALID,104.0,VALID,0.0,VALID,24.824,VALID,27.0,VALID,0.18,
2011-09-25, 00:16:04,VALID,1010.462,VALID,0.0,VALID,104.0,VALID,0.0,VALID,24.803,VALID,27.0,VALID,0.082,
2011-09-25, 00:17:04,VALID,1010.438,VALID,0.0,VALID,104.0,VALID,0.0,VALID,24.764,VALID,27.0,VALID,0.0,
2011-09-25, 00:18:04,VALID,1010.427,VALID,0.0,VALID,104.0,VALID,0.112,VALID,24.766,VALID,27.0,VALID,0.0,
2011-09-25, 00:19:04,VALID,1010.396,VALID,0.0,VALID,104.0,VALID,0.0,VALID,24.766,VALID,27.0,VALID,0.0,
2011-09-25, 00:20:04,VALID,1010.413,VALID,0.0,VALID,104.0,VALID,0.0,VALID,24.766,VALID,27.0,VALID,0.0,
2011-09-25, 00:21:04,VALID,1010.394,VALID,0.0,VALID,104.0,VALID,0.0,VALID,24.766,VALID,27.0,VALID,0.0,
2011-09-25, 00:22:04,VALID,1010.372,VALID,0.0,VALID,104.0,VALID,0.0,VALID,24.766,VALID,27.0,VALID,0.0,
2011-09-25, 00:23:04,VALID,1010.381,VALID,0.0,VALID,104.0,VALID,0.0,VALID,24.785,VALID,27.0,VALID,0.0,
2011-09-25, 00:24:04,VALID,1010.376,VALID,0.0,VALID,104.0,VALID,0.0,VALID,24.805,VALID,27.0,VALID,0.0,
2011-09-25, 00:25:04,VALID,1010.401,VALID,0.0,VALID,104.0,VALID,0.0,VALID,24.805,VALID,27.0,VALID,0.293,
2011-09-25, 00:26:04,VALID,1010.412,VALID,0.0,VALID,104.0,VALID,0.0,VALID,24.805,VALID,27.0,VALID,0.539,
2011-09-25, 00:27:04,VALID,1010.426,VALID,0.0,VALID,104.0,VALID,0.0,VALID,24.805,VALID,27.0,VALID,0.178,
2011-09-25, 00:28:04,VALID,1010.434,VALID,0.0,VALID,104.0,VALID,0.0,VALID,24.824,VALID,27.0,VALID,0.081,
2011-09-25, 00:29:04,VALID,1010.415,VALID,0.0,VALID,104.0,VALID,0.0,VALID,24.783,VALID,27.0,VALID,0.175,
2011-09-25, 00:30:04,VALID,1010.414,VALID,0.0,VALID,104.0,VALID,0.0,VALID,24.805,VALID,27.0,VALID,0.183,
2011-09-25, 00:31:04,VALID,1010.381,VALID,0.0,VALID,104.0,VALID,0.0,VALID,24.805,VALID,27.0,VALID,0.281,
2011-09-25, 00:32:04,VALID,1010.327,VALID,0.0,VALID,104.0,VALID,0.0,VALID,24.824,VALID,27.0,VALID,0.142,
2011-09-25, 00:33:04,VALID,1010.322,VALID,0.0,VALID,104.0,VALID,0.0,VALID,24.824,VALID,27.0,VALID,0.0,
2011-09-25, 00:34:04,VALID,1010.319,VALID,0.0,VALID,104.0,VALID,0.0,VALID,24.844,VALID,27.0,VALID,0.0,
2011-09-25, 00:35:04,VALID,1010.293,VALID,0.0,VALID,104.0,VALID,0.0,VALID,24.822,VALID,27.0,VALID,0.0,
2011-09-25, 00:36:04,VALID,1010.303,VALID,0.0,VALID,104.0,VALID,0.0,VALID,24.883,VALID,27.0,VALID,0.0,
2011-09-25, 00:37:04,VALID,1010.292,VALID,0.0,VALID,104.0,VALID,0.0,VALID,24.883,VALID,27.0,VALID,0.312,
2011-09-25, 00:38:04,VALID,1010.295,VALID,0.0,VALID,104.0,VALID,0.0,VALID,24.902,VALID,27.0,VALID,0.366,
2011-09-25, 00:39:04,VALID,1010.282,VALID,0.0,VALID,104.0,VALID,0.0,VALID,24.9,VALID,27.0,VALID,0.466,
2011-09-25, 00:40:04,VALID,1010.271,VALID,0.0,VALID,104.0,VALID,0.0,VALID,24.883,VALID,27.0,VALID,0.441,
2011-09-25, 00:41:04,VALID,1010.267,VALID,0.0,VALID,104.0,VALID,0.0,VALID,24.883,VALID,27.0,VALID,0.28,
2011-09-25, 00:42:04,VALID,1010.247,VALID,0.0,VALID,104.0,VALID,0.0,VALID,24.863,VALID,27.0,VALID,0.271,
2011-09-25, 00:43:04,VALID,1010.256,VALID,0.0,VALID,104.0,VALID,0.0,VALID,24.844,VALID,27.0,VALID,0.228,
2011-09-25, 00:44:04,VALID,1010.242,VALID,0.0,VALID,104.0,VALID,0.0,VALID,24.844,VALID,27.0,VALID,0.225,
2011-09-25, 00:45:04,VALID,1010.223,VALID,0.0,VALID,104.0,VALID,0.0,VALID,24.803,VALID,27.0,VALID,0.121,
2011-09-25, 00:46:04,VALID,1010.242,VALID,0.0,VALID,104.0,VALID,0.0,VALID,24.844,VALID,27.0,VALID,0.0,
2011-09-25, 00:47:04,VALID,1010.219,VALID,0.0,VALID,104.0,VALID,0.0,VALID,24.844,VALID,27.0,VALID,0.0,
2011-09-25, 00:48:04,VALID,1010.216,VALID,0.0,VALID,104.0,VALID,0.0,VALID,24.824,VALID,27.0,VALID,0.0,
2011-09-25, 00:49:04,VALID,1010.204,VALID,0.0,VALID,104.0,VALID,0.0,VALID,24.844,VALID,27.0,VALID,0.0,
2011-09-25, 00:50:04,VALID,1010.143,VALID,0.0,VALID,104.0,VALID,0.0,VALID,24.822,VALID,27.0,VALID,0.0,
2011-09-25, 00:51:04,VALID,1010.095,VALID,0.0,VALID,104.0,VALID,0.0,VALID,24.842,VALID,27.0,VALID,0.0,
2011-09-25, 00:52:04,VALID,1010.079,VALID,0.0,VALID,104.0,VALID,0.112,VALID,24.822,VALID,27.0,VALID,0.0,
2011-09-25, 00:53:04,VALID,1010.048,VALID,0.0,VALID,104.0,VALID,0.112,VALID,24.842,VALID,27.0,VALID,0.0,
2011-09-25, 00:54:04,VALID,1010.066,VALID,0.0,VALID,104.0,VALID,0.112,VALID,24.842,VALID,27.0,VALID,0.0,
2011-09-25, 00:55:04,VALID,1010.032,VALID,0.0,VALID,104.0,VALID,0.0,VALID,24.822,VALID,27.0,VALID,0.0,
2011-09-25, 00:56:04,VALID,1010.046,VALID,0.0,VALID,104.0,VALID,0.0,VALID,24.844,VALID,27.0,VALID,0.0,
2011-09-25, 00:57:04,VALID,1010.016,VALID,0.0,VALID,104.0,VALID,0.112,VALID,24.842,VALID,27.0,VALID,0.0,
2011-09-25, 00:58:04,VALID,1010.028,VALID,0.0,VALID,104.0,VALID,0.0,VALID,24.844,VALID,27.0,VALID,0.0,
2011-09-25, 00:59:04,VALID,1009.999,VALID,0.0,VALID,104.0,VALID,0.112,VALID,24.822,VALID,27.0,VALID,0.127,
2011-09-25, 01:00:04,VALID,1009.944,VALID,0.0,VALID,104.0,VALID,0.112,VALID,24.842,VALID,27.0,VALID,0.319,
2011-09-25, 01:01:04,VALID,1009.946,VALID,0.0,VALID,104.0,VALID,0.0,VALID,24.822,VALID,27.0,VALID,0.35,
2011-09-25, 01:02:04,VALID,1009.91,VALID,0.0,VALID,104.0,VALID,0.112,VALID,24.842,VALID,27.0,VALID,0.264,
2011-09-25, 01:03:04,VALID,1009.912,VALID,0.0,VALID,104.0,VALID,0.112,VALID,24.844,VALID,27.0,VALID,0.444,
2011-09-25, 01:04:04,VALID,1009.92,VALID,0.0,VALID,104.0,VALID,0.112,VALID,24.822,VALID,27.0,VALID,0.27,
2011-09-25, 01:05:04,VALID,1009.903,VALID,0.0,VALID,104.0,VALID,0.0,VALID,24.803,VALID,27.0,VALID,0.0,
2011-09-25, 01:06:04,VALID,1009.915,VALID,0.0,VALID,104.0,VALID,0.112,VALID,24.803,VALID,27.0,VALID,0.0,
2011-09-25, 01:07:04,VALID,1009.94,VALID,0.0,VALID,104.0,VALID,0.112,VALID,24.783,VALID,27.0,VALID,0.0,
2011-09-25, 01:08:04,VALID,1009.936,VALID,0.0,VALID,104.0,VALID,0.0,VALID,24.783,VALID,27.0,VALID,0.0,
2011-09-25, 01:09:04,VALID,1009.929,VALID,0.0,VALID,104.0,VALID,0.112,VALID,24.764,VALID,27.0,VALID,0.0,
2011-09-25, 01:10:04,VALID,1009.893,VALID,0.0,VALID,104.0,VALID,0.0,VALID,24.764,VALID,27.0,VALID,0.0,
2011-09-25, 01:11:04,VALID,1009.844,VALID,0.0,VALID,104.0,VALID,0.0,VALID,24.764,VALID,27.0,VALID,0.293,
2011-09-25, 01:12:04,VALID,1009.842,VALID,0.0,VALID,104.0,VALID,0.0,VALID,24.783,VALID,27.0,VALID,0.327,
2011-09-25, 01:13:04,VALID,1009.785,VALID,0.0,VALID,104.0,VALID,0.112,VALID,24.783,VALID,27.0,VALID,0.376,
2011-09-25, 01:14:04,VALID,1009.724,VALID,0.0,VALID,104.0,VALID,0.112,VALID,24.783,VALID,55.0,VALID,0.309,
2011-09-25, 01:15:04,VALID,1009.691,VALID,0.0,VALID,104.0,VALID,0.0,VALID,24.764,VALID,55.0,VALID,0.277,
2011-09-25, 01:16:04,VALID,1009.673,VALID,0.0,VALID,104.0,VALID,0.0,VALID,24.822,VALID,56.0,VALID,0.667,
2011-09-25, 01:17:04,VALID,1009.651,VALID,0.0,VALID,104.0,VALID,0.112,VALID,24.803,VALID,56.0,VALID,0.445,
2011-09-25, 01:18:04,VALID,1009.648,VALID,0.0,VALID,104.0,VALID,0.0,VALID,24.844,VALID,56.0,VALID,0.595,
2011-09-25, 01:19:04,VALID,1009.663,VALID,0.0,VALID,104.0,VALID,0.112,VALID,24.842,VALID,56.0,VALID,0.593,
2011-09-25, 01:20:04,VALID,1009.652,VALID,0.0,VALID,104.0,VALID,0.0,VALID,24.822,VALID,56.0,VALID,0.79,
2011-09-25, 01:21:04,VALID,1009.651,VALID,0.0,VALID,104.0,VALID,0.0,VALID,24.822,VALID,57.0,VALID,0.556,
2011-09-25, 01:22:04,VALID,1009.611,VALID,0.0,VALID,104.0,VALID,0.0,VALID,24.822,VALID,57.0,VALID,0.255,
2011-09-25, 01:23:04,VALID,1009.607,VALID,0.0,VALID,104.0,VALID,0.0,VALID,24.824,VALID,58.0,VALID,0.456,
2011-09-25, 01:24:04,VALID,1009.571,VALID,0.0,VALID,104.0,VALID,0.112,VALID,24.803,VALID,58.0,VALID,0.097,
2011-09-25, 01:25:04,VALID,1009.533,VALID,0.0,VALID,104.0,VALID,0.112,VALID,24.783,VALID,58.0,VALID,0.173,
2011-09-25, 01:26:04,VALID,1009.536,VALID,0.0,VALID,104.0,VALID,0.0,VALID,24.783,VALID,58.0,VALID,0.496,
2011-09-25, 01:27:04,VALID,1009.496,VALID,0.0,VALID,104.0,VALID,0.0,VALID,24.764,VALID,57.0,VALID,0.319,
2011-09-25, 01:28:04,VALID,1009.469,VALID,0.0,VALID,104.0,VALID,0.0,VALID,24.745,VALID,57.0,VALID,0.485,
2011-09-25, 01:29:04,VALID,1009.453,VALID,0.0,VALID,104.0,VALID,0.112,VALID,24.725,VALID,71.0,VALID,0.799,
2011-09-25, 01:30:04,VALID,1009.433,VALID,0.0,VALID,104.0,VALID,0.112,VALID,24.746,VALID,81.0,VALID,0.57,
2011-09-25, 01:31:04,VALID,1009.419,VALID,0.0,VALID,104.0,VALID,0.112,VALID,24.725,VALID,88.0,VALID,0.896,
2011-09-25, 01:32:04,VALID,1009.388,VALID,0.0,VALID,104.0,VALID,0.112,VALID,24.725,VALID,70.0,VALID,0.805,
2011-09-25, 01:33:04,VALID,1009.403,VALID,0.0,VALID,104.0,VALID,0.0,VALID,24.706,VALID,69.0,VALID,0.424,
2011-09-25, 01:34:04,VALID,1009.388,VALID,0.0,VALID,104.0,VALID,0.0,VALID,24.706,VALID,66.0,VALID,0.386,
2011-09-25, 01:35:04,VALID,1009.382,VALID,0.0,VALID,104.0,VALID,0.0,VALID,24.688,VALID,66.0,VALID,0.387,
2011-09-25, 01:36:04,VALID,1009.358,VALID,0.0,VALID,104.0,VALID,0.0,VALID,24.688,VALID,66.0,VALID,0.366,
2011-09-25, 01:37:04,VALID,1009.365,VALID,0.0,VALID,104.0,VALID,0.0,VALID,24.668,VALID,66.0,VALID,0.082,
2011-09-25, 01:38:04,VALID,1009.364,VALID,0.0,VALID,104.0,VALID,0.0,VALID,24.688,VALID,66.0,VALID,0.065,
2011-09-25, 01:39:04,VALID,1009.347,VALID,0.0,VALID,104.0,VALID,0.0,VALID,24.668,VALID,66.0,VALID,0.647,
2011-09-25, 01:40:04,VALID,1009.335,VALID,0.0,VALID,104.0,VALID,0.0,VALID,24.688,VALID,60.0,VALID,0.568,
2011-09-25, 01:41:04,VALID,1009.312,VALID,0.0,VALID,104.0,VALID,0.0,VALID,24.688,VALID,60.0,VALID,0.554,
2011-09-25, 01:42:04,VALID,1009.315,VALID,0.0,VALID,104.0,VALID,0.0,VALID,24.668,VALID,62.0,VALID,0.4,
2011-09-25, 01:43:04,VALID,1009.342,VALID,0.0,VALID,104.0,VALID,0.0,VALID,24.688,VALID,71.0,VALID,0.585,
2011-09-25, 01:44:04,VALID,1009.336,VALID,0.0,VALID,104.0,VALID,0.0,VALID,24.668,VALID,113.0,VALID,0.718,
2011-09-25, 01:45:04,VALID,1009.375,VALID,0.0,VALID,104.0,VALID,0.0,VALID,24.668,VALID,84.0,VALID,0.985,
2011-09-25, 01:46:04,VALID,1009.386,VALID,0.0,VALID,104.0,VALID,0.0,VALID,24.688,VALID,64.0,VALID,0.875,
2011-09-25, 01:47:04,VALID,1009.397,VALID,0.0,VALID,104.0,VALID,0.0,VALID,24.688,VALID,59.0,VALID,0.672,
2011-09-25, 01:48:04,VALID,1009.396,VALID,0.0,VALID,104.0,VALID,0.0,VALID,24.688,VALID,60.0,VALID,0.769,
2011-09-25, 01:49:04,VALID,1009.397,VALID,0.0,VALID,104.0,VALID,0.0,VALID,24.688,VALID,59.0,VALID,0.553,
2011-09-25, 01:50:04,VALID,1009.385,VALID,0.0,VALID,104.0,VALID,0.0,VALID,24.667,VALID,56.0,VALID,0.606,
2011-09-25, 01:51:04,VALID,1009.406,VALID,0.0,VALID,104.0,VALID,0.0,VALID,24.688,VALID,56.0,VALID,0.6,
2011-09-25, 01:52:04,VALID,1009.4,VALID,0.0,VALID,104.0,VALID,0.0,VALID,24.668,VALID,56.0,VALID,0.866,
2011-09-25, 01:53:04,VALID,1009.381,VALID,0.0,VALID,104.0,VALID,0.112,VALID,24.649,VALID,56.0,VALID,0.4,
2011-09-25, 01:54:04,VALID,1009.41,VALID,0.0,VALID,104.0,VALID,0.0,VALID,24.608,VALID,56.0,VALID,0.567,
2011-09-25, 01:55:04,VALID,1009.416,VALID,0.0,VALID,104.0,VALID,0.0,VALID,24.61,VALID,40.0,VALID,0.762,
2011-09-25, 01:56:04,VALID,1009.422,VALID,0.0,VALID,104.0,VALID,0.0,VALID,24.589,VALID,35.0,VALID,0.273,
2011-09-25, 01:57:04,VALID,1009.429,VALID,0.0,VALID,104.0,VALID,0.0,VALID,24.569,VALID,35.0,VALID,0.191,
2011-09-25, 01:58:04,VALID,1009.436,VALID,0.0,VALID,104.0,VALID,0.0,VALID,24.569,VALID,35.0,VALID,0.254,
2011-09-25, 01:59:04,VALID,1009.46,VALID,0.0,VALID,104.0,VALID,0.112,VALID,24.53,VALID,32.0,VALID,0.411,
2011-09-25, 02:00:04,VALID,1009.458,VALID,0.0,VALID,104.0,VALID,0.0,VALID,24.53,VALID,32.0,VALID,0.388,
2011-09-25, 02:01:04,VALID,1009.461,VALID,0.0,VALID,104.0,VALID,0.112,VALID,24.511,VALID,32.0,VALID,0.29,
2011-09-25, 02:02:04,VALID,1009.48,VALID,0.0,VALID,104.0,VALID,0.0,VALID,24.512,VALID,32.0,VALID,0.155,
2011-09-25, 02:03:04,VALID,1009.485,VALID,0.0,VALID,104.0,VALID,0.112,VALID,24.491,VALID,32.0,VALID,0.158,
2011-09-25, 02:04:04,VALID,1009.503,VALID,0.0,VALID,104.0,VALID,0.112,VALID,24.472,VALID,32.0,VALID,0.168,
2011-09-25, 02:05:04,VALID,1009.508,VALID,0.0,VALID,104.0,VALID,0.0,VALID,24.452,VALID,32.0,VALID,0.347,
2011-09-25, 02:06:04,VALID,1009.517,VALID,0.0,VALID,104.0,VALID,0.112,VALID,24.454,VALID,32.0,VALID,0.566,
2011-09-25, 02:07:04,VALID,1009.47,VALID,0.0,VALID,104.0,VALID,0.0,VALID,24.474,VALID,32.0,VALID,0.523,
2011-09-25, 02:08:04,VALID,1009.45,VALID,0.0,VALID,104.0,VALID,0.0,VALID,24.454,VALID,32.0,VALID,0.303,
2011-09-25, 02:09:04,VALID,1009.476,VALID,0.0,VALID,104.0,VALID,0.112,VALID,24.433,VALID,33.0,VALID,0.625,
2011-09-25, 02:10:04,VALID,1009.446,VALID,0.0,VALID,104.0,VALID,0.0,VALID,24.433,VALID,33.0,VALID,0.28,
2011-09-25, 02:11:04,VALID,1009.434,VALID,0.0,VALID,104.0,VALID,0.0,VALID,24.413,VALID,33.0,VALID,0.216,
2011-09-25, 02:12:04,VALID,1009.435,VALID,0.0,VALID,104.0,VALID,0.0,VALID,24.394,VALID,33.0,VALID,0.293,
2011-09-25, 02:13:04,VALID,1009.446,VALID,0.0,VALID,104.0,VALID,0.0,VALID,24.415,VALID,32.0,VALID,0.346,
2011-09-25, 02:14:04,VALID,1009.478,VALID,0.0,VALID,104.0,VALID,0.0,VALID,24.415,VALID,32.0,VALID,0.159,
2011-09-25, 02:15:04,VALID,1009.51,VALID,0.0,VALID,104.0,VALID,0.0,VALID,24.415,VALID,32.0,VALID,0.188,
2011-09-25, 02:16:04,VALID,1009.519,VALID,0.0,VALID,104.0,VALID,0.0,VALID,24.394,VALID,32.0,VALID,0.24,
2011-09-25, 02:17:04,VALID,1009.542,VALID,0.0,VALID,104.0,VALID,0.112,VALID,24.374,VALID,32.0,VALID,0.184,
2011-09-25, 02:18:04,VALID,1009.501,VALID,0.0,VALID,104.0,VALID,0.0,VALID,24.396,VALID,32.0,VALID,0.0,
2011-09-25, 02:19:04,VALID,1009.521,VALID,0.0,VALID,104.0,VALID,0.0,VALID,24.374,VALID,32.0,VALID,0.104,
2011-09-25, 02:20:04,VALID,1009.524,VALID,0.0,VALID,104.0,VALID,0.0,VALID,24.357,VALID,32.0,VALID,0.0,
2011-09-25, 02:21:04,VALID,1009.535,VALID,0.0,VALID,104.0,VALID,0.0,VALID,24.376,VALID,33.0,VALID,0.0,
2011-09-25, 02:22:04,VALID,1009.523,VALID,0.0,VALID,104.0,VALID,0.0,VALID,24.335,VALID,32.0,VALID,0.0,
2011-09-25, 02:23:04,VALID,1009.518,VALID,0.0,VALID,104.0,VALID,0.0,VALID,24.335,VALID,33.0,VALID,0.0,
2011-09-25, 02:24:04,VALID,1009.501,VALID,0.0,VALID,104.0,VALID,0.0,VALID,24.316,VALID,32.0,VALID,0.0,
2011-09-25, 02:25:04,VALID,1009.557,VALID,0.0,VALID,104.0,VALID,0.0,VALID,24.318,VALID,32.0,VALID,0.0,
2011-09-25, 02:26:04,VALID,1009.511,VALID,0.0,VALID,104.0,VALID,0.112,VALID,24.296,VALID,32.0,VALID,0.0,
2011-09-25, 02:27:04,VALID,1009.502,VALID,0.0,VALID,104.0,VALID,0.112,VALID,24.296,VALID,32.0,VALID,0.0,
2011-09-25, 02:28:04,VALID,1009.496,VALID,0.0,VALID,104.0,VALID,0.0,VALID,24.277,VALID,32.0,VALID,0.0,
2011-09-25, 02:29:04,VALID,1009.476,VALID,0.0,VALID,104.0,VALID,0.0,VALID,24.257,VALID,32.0,VALID,0.0,
2011-09-25, 02:30:04,VALID,1009.456,VALID,0.0,VALID,104.0,VALID,0.0,VALID,24.259,VALID,32.0,VALID,0.0,
2011-09-25, 02:31:04,VALID,1009.449,VALID,0.0,VALID,104.0,VALID,0.0,VALID,24.259,VALID,32.0,VALID,0.0,
2011-09-25, 02:32:04,VALID,1009.457,VALID,0.0,VALID,104.0,VALID,0.0,VALID,24.259,VALID,32.0,VALID,0.0,
2011-09-25, 02:33:04,VALID,1009.444,VALID,0.0,VALID,104.0,VALID,0.0,VALID,24.259,VALID,32.0,VALID,0.0,
2011-09-25, 02:34:04,VALID,1009.439,VALID,0.0,VALID,104.0,VALID,0.0,VALID,24.279,VALID,32.0,VALID,0.0,
2011-09-25, 02:35:04,VALID,1009.438,VALID,0.0,VALID,104.0,VALID,0.0,VALID,24.319,VALID,32.0,VALID,0.0,
2011-09-25, 02:36:04,VALID,1009.482,VALID,0.0,VALID,104.0,VALID,0.0,VALID,24.298,VALID,32.0,VALID,0.0,
2011-09-25, 02:37:04,VALID,1009.473,VALID,0.0,VALID,104.0,VALID,0.0,VALID,24.298,VALID,32.0,VALID,0.168,
2011-09-25, 02:38:04,VALID,1009.463,VALID,0.0,VALID,104.0,VALID,0.0,VALID,24.298,VALID,32.0,VALID,0.225,
2011-09-25, 02:39:04,VALID,1009.416,VALID,0.0,VALID,104.0,VALID,0.0,VALID,24.319,VALID,32.0,VALID,0.254,
2011-09-25, 02:40:04,VALID,1009.445,VALID,0.0,VALID,104.0,VALID,0.0,VALID,24.298,VALID,32.0,VALID,0.25,
2011-09-25, 02:41:04,VALID,1009.416,VALID,0.0,VALID,104.0,VALID,0.0,VALID,24.298,VALID,32.0,VALID,0.252,
2011-09-25, 02:42:04,VALID,1009.437,VALID,0.0,VALID,104.0,VALID,0.0,VALID,24.319,VALID,32.0,VALID,0.186,
2011-09-25, 02:43:04,VALID,1009.463,VALID,0.0,VALID,104.0,VALID,0.0,VALID,24.339,VALID,32.0,VALID,0.004,
2011-09-25, 02:44:04,VALID,1009.467,VALID,0.0,VALID,104.0,VALID,0.0,VALID,24.339,VALID,32.0,VALID,0.177,
2011-09-25, 02:45:04,VALID,1009.469,VALID,0.0,VALID,104.0,VALID,0.0,VALID,24.319,VALID,32.0,VALID,0.172,
2011-09-25, 02:46:04,VALID,1009.472,VALID,0.0,VALID,104.0,VALID,0.0,VALID,24.279,VALID,32.0,VALID,0.205,
2011-09-25, 02:47:04,VALID,1009.515,VALID,0.0,VALID,104.0,VALID,0.0,VALID,24.279,VALID,32.0,VALID,0.215,
2011-09-25, 02:48:04,VALID,1009.499,VALID,0.0,VALID,104.0,VALID,0.0,VALID,24.3,VALID,32.0,VALID,0.056,
2011-09-25, 02:49:04,VALID,1009.491,VALID,0.0,VALID,104.0,VALID,0.0,VALID,24.3,VALID,32.0,VALID,0.0,
2011-09-25, 02:50:04,VALID,1009.488,VALID,0.0,VALID,104.0,VALID,0.0,VALID,24.279,VALID,32.0,VALID,0.0,
2011-09-25, 02:51:04,VALID,1009.447,VALID,0.0,VALID,104.0,VALID,0.0,VALID,24.238,VALID,32.0,VALID,0.0,
2011-09-25, 02:52:04,VALID,1009.422,VALID,0.0,VALID,104.0,VALID,0.112,VALID,24.218,VALID,32.0,VALID,0.0,
2011-09-25, 02:53:04,VALID,1009.443,VALID,0.0,VALID,104.0,VALID,0.0,VALID,24.179,VALID,32.0,VALID,0.0,
2011-09-25, 02:54:04,VALID,1009.444,VALID,0.0,VALID,104.0,VALID,0.0,VALID,24.16,VALID,32.0,VALID,0.002,
2011-09-25, 02:55:04,VALID,1009.441,VALID,0.0,VALID,104.0,VALID,0.0,VALID,24.14,VALID,32.0,VALID,0.287,
2011-09-25, 02:56:04,VALID,1009.463,VALID,0.0,VALID,104.0,VALID,0.0,VALID,24.142,VALID,32.0,VALID,0.305,
2011-09-25, 02:57:04,VALID,1009.468,VALID,0.0,VALID,104.0,VALID,0.0,VALID,24.101,VALID,32.0,VALID,0.132,
2011-09-25, 02:58:04,VALID,1009.461,VALID,0.0,VALID,104.0,VALID,0.0,VALID,24.084,VALID,32.0,VALID,0.0,
2011-09-25, 02:59:04,VALID,1009.48,VALID,0.0,VALID,104.0,VALID,0.112,VALID,24.062,VALID,32.0,VALID,0.0,
2011-09-25, 03:00:04,VALID,1009.442,VALID,0.0,VALID,104.0,VALID,0.112,VALID,24.043,VALID,32.0,VALID,0.0,
2011-09-25, 03:01:04,VALID,1009.435,VALID,0.0,VALID,104.0,VALID,0.0,VALID,24.043,VALID,32.0,VALID,0.0,
2011-09-25, 03:02:04,VALID,1009.45,VALID,0.0,VALID,104.0,VALID,0.112,VALID,24.045,VALID,32.0,VALID,0.0,
2011-09-25, 03:03:04,VALID,1009.467,VALID,0.0,VALID,104.0,VALID,0.112,VALID,24.043,VALID,32.0,VALID,0.0,
2011-09-25, 03:04:04,VALID,1009.492,VALID,0.0,VALID,104.0,VALID,0.112,VALID,24.045,VALID,32.0,VALID,0.067,
2011-09-25, 03:05:04,VALID,1009.493,VALID,0.0,VALID,104.0,VALID,0.0,VALID,24.025,VALID,32.0,VALID,0.0,
2011-09-25, 03:06:04,VALID,1009.523,VALID,0.0,VALID,104.0,VALID,0.0,VALID,24.006,VALID,32.0,VALID,0.173,
2011-09-25, 03:07:04,VALID,1009.536,VALID,0.0,VALID,104.0,VALID,0.0,VALID,23.986,VALID,33.0,VALID,0.0,
2011-09-25, 03:08:04,VALID,1009.508,VALID,0.0,VALID,104.0,VALID,0.0,VALID,23.986,VALID,32.0,VALID,0.001,
2011-09-25, 03:09:04,VALID,1009.528,VALID,0.0,VALID,104.0,VALID,0.0,VALID,23.986,VALID,32.0,VALID,0.0,
2011-09-25, 03:10:04,VALID,1009.514,VALID,0.0,VALID,104.0,VALID,0.0,VALID,23.986,VALID,33.0,VALID,0.0,
2011-09-25, 03:11:04,VALID,1009.464,VALID,0.0,VALID,104.0,VALID,0.0,VALID,23.986,VALID,32.0,VALID,0.0,
2011-09-25, 03:12:04,VALID,1009.462,VALID,0.0,VALID,104.0,VALID,0.0,VALID,23.986,VALID,32.0,VALID,0.0,
2011-09-25, 03:13:04,VALID,1009.466,VALID,0.0,VALID,104.0,VALID,0.0,VALID,23.986,VALID,32.0,VALID,0.0,
2011-09-25, 03:14:04,VALID,1009.463,VALID,0.0,VALID,104.0,VALID,0.0,VALID,24.006,VALID,32.0,VALID,0.0,
2011-09-25, 03:15:04,VALID,1009.444,VALID,0.0,VALID,104.0,VALID,0.0,VALID,24.006,VALID,32.0,VALID,0.0,
2011-09-25, 03:16:04,VALID,1009.47,VALID,0.0,VALID,104.0,VALID,0.0,VALID,24.006,VALID,32.0,VALID,0.0,
2011-09-25, 03:17:04,VALID,1009.481,VALID,0.0,VALID,104.0,VALID,0.0,VALID,23.986,VALID,33.0,VALID,0.0,
2011-09-25, 03:18:04,VALID,1009.474,VALID,0.0,VALID,104.0,VALID,0.0,VALID,24.008,VALID,32.0,VALID,0.0,
2011-09-25, 03:19:04,VALID,1009.457,VALID,0.0,VALID,104.0,VALID,0.0,VALID,23.986,VALID,32.0,VALID,0.0,
2011-09-25, 03:20:05,VALID,1009.489,VALID,0.0,VALID,104.0,VALID,0.112,VALID,23.984,VALID,32.0,VALID,0.0,
2011-09-25, 03:21:05,VALID,1009.481,VALID,0.0,VALID,104.0,VALID,0.112,VALID,23.986,VALID,32.0,VALID,0.0,
2011-09-25, 03:22:05,VALID,1009.471,VALID,0.0,VALID,104.0,VALID,0.0,VALID,23.946,VALID,33.0,VALID,0.0,
2011-09-25, 03:23:05,VALID,1009.509,VALID,0.0,VALID,104.0,VALID,0.0,VALID,23.947,VALID,32.0,VALID,0.0,
2011-09-25, 03:24:05,VALID,1009.505,VALID,0.0,VALID,104.0,VALID,0.0,VALID,23.946,VALID,32.0,VALID,0.0,
2011-09-25, 03:25:05,VALID,1009.534,VALID,0.0,VALID,104.0,VALID,0.112,VALID,23.946,VALID,32.0,VALID,0.0,
2011-09-25, 03:26:05,VALID,1009.53,VALID,0.0,VALID,104.0,VALID,0.112,VALID,23.946,VALID,32.0,VALID,0.027,
2011-09-25, 03:27:05,VALID,1009.61,VALID,0.0,VALID,104.0,VALID,0.112,VALID,23.965,VALID,32.0,VALID,0.191,
2011-09-25, 03:28:05,VALID,1009.576,VALID,0.0,VALID,104.0,VALID,0.112,VALID,23.965,VALID,32.0,VALID,0.0,
2011-09-25, 03:29:05,VALID,1009.605,VALID,0.0,VALID,104.0,VALID,0.112,VALID,24.006,VALID,33.0,VALID,0.0,
2011-09-25, 03:30:05,VALID,1009.577,VALID,0.0,VALID,104.0,VALID,0.112,VALID,23.984,VALID,33.0,VALID,0.0,
2011-09-25, 03:31:05,VALID,1009.568,VALID,0.0,VALID,104.0,VALID,0.112,VALID,23.965,VALID,32.0,VALID,0.0,
2011-09-25, 03:32:05,VALID,1009.6,VALID,0.0,VALID,104.0,VALID,0.112,VALID,23.947,VALID,32.0,VALID,0.0,
2011-09-25, 03:33:05,VALID,1009.604,VALID,0.0,VALID,104.0,VALID,0.112,VALID,23.946,VALID,32.0,VALID,0.0,
2011-09-25, 03:34:05,VALID,1009.598,VALID,0.0,VALID,104.0,VALID,0.112,VALID,23.926,VALID,32.0,VALID,0.257,
2011-09-25, 03:35:05,VALID,1009.594,VALID,0.0,VALID,104.0,VALID,0.0,VALID,23.928,VALID,32.0,VALID,0.236,
2011-09-25, 03:36:05,VALID,1009.6,VALID,0.0,VALID,104.0,VALID,0.0,VALID,23.967,VALID,32.0,VALID,0.322,
2011-09-25, 03:37:05,VALID,1009.624,VALID,0.0,VALID,104.0,VALID,0.0,VALID,23.967,VALID,32.0,VALID,0.335,
2011-09-25, 03:38:05,VALID,1009.608,VALID,0.0,VALID,104.0,VALID,0.0,VALID,23.969,VALID,32.0,VALID,0.323,
2011-09-25, 03:39:05,VALID,1009.614,VALID,0.0,VALID,104.0,VALID,0.0,VALID,23.969,VALID,32.0,VALID,0.196,
2011-09-25, 03:40:05,VALID,1009.631,VALID,0.0,VALID,104.0,VALID,0.0,VALID,23.967,VALID,32.0,VALID,0.107,
2011-09-25, 03:41:05,VALID,1009.645,VALID,0.0,VALID,104.0,VALID,0.0,VALID,23.988,VALID,32.0,VALID,0.0,
2011-09-25, 03:42:05,VALID,1009.663,VALID,0.0,VALID,104.0,VALID,0.0,VALID,23.949,VALID,32.0,VALID,0.0,
2011-09-25, 03:43:05,VALID,1009.678,VALID,0.0,VALID,104.0,VALID,0.0,VALID,23.949,VALID,32.0,VALID,0.0,
2011-09-25, 03:44:05,VALID,1009.684,VALID,0.0,VALID,104.0,VALID,0.0,VALID,23.889,VALID,32.0,VALID,0.0,